| time (UTC) | temp F | wind direction | speed knots | gust knots | rain 1hr in | rain 24hr in | rain mn in | humidity % | barometer mb |
| 20260504004518 | 87 | 325 | 5.2 | 9.6 | 0.00 | 0.00 | 0.00 | 30 | 1007.5 |
| 20260504003029 | 87 | 298 | 4.3 | 9.6 | 0.00 | 0.00 | 0.00 | 31 | 1007.6 |
| 20260504001526 | 87 | 326 | 5.2 | 11.3 | 0.00 | 0.00 | 0.00 | 31 | 1007.7 |
| 20260504000006 | 88 | 323 | 3.5 | 8.7 | 0.00 | 0.00 | 0.00 | 29 | 1007.7 |
| 20260503234524 | 89 | 21 | 2.6 | 10.4 | 0.00 | 0.00 | 0.00 | 29 | 1007.8 |
| 20260503233021 | 88 | 318 | 6.1 | 9.6 | 0.00 | 0.00 | 0.00 | 29 | 1008.0 |
| 20260503231512 | 89 | 275 | 4.3 | 8.7 | 0.00 | 0.00 | 0.00 | 30 | 1008.2 |
| 20260503230011 | 89 | 336 | 4.3 | 11.3 | 0.00 | 0.00 | 0.00 | 30 | 1008.5 |
| 20260503224510 | 89 | 360 | 5.2 | 9.6 | 0.00 | 0.00 | 0.00 | 30 | 1008.8 |
| 20260503223010 | 89 | 269 | 3.5 | 7.8 | 0.00 | 0.00 | 0.00 | 31 | 1009.0 |
| 20260503221529 | 89 | 314 | 2.6 | 9.6 | 0.00 | 0.00 | 0.00 | 33 | 1009.1 |
| 20260503220022 | 89 | 341 | 3.5 | 7.8 | 0.00 | 0.00 | 0.00 | 31 | 1009.3 |
| 20260503214522 | 88 | 295 | 0.9 | 7.0 | 0.00 | 0.00 | 0.00 | 35 | 1009.5 |
| 20260503213023 | 88 | 289 | 1.7 | 8.7 | 0.00 | 0.00 | 0.00 | 31 | 1009.6 |
| 20260503211516 | 88 | 342 | 4.3 | 7.0 | 0.00 | 0.00 | 0.00 | 32 | 1009.8 |
| 20260503210014 | 87 | 323 | 3.5 | 6.1 | 0.00 | 0.00 | 0.00 | 35 | 1010.0 |
| 20260503204509 | 86 | 257 | 3.5 | 8.7 | 0.00 | 0.00 | 0.00 | 34 | 1010.2 |
| 20260503203025 | 86 | 309 | 3.5 | 5.2 | 0.00 | 0.00 | 0.00 | 35 | 1010.4 |
| 20260503201523 | 84 | 290 | 3.5 | 7.8 | 0.00 | 0.00 | 0.00 | 39 | 1010.6 |
| 20260503200024 | 84 | 26 | 3.5 | 7.0 | 0.00 | 0.00 | 0.00 | 40 | 1010.9 |
| 20260503194523 | 82 | 259 | 5.2 | 7.8 | 0.00 | 0.00 | 0.00 | 42 | 1011.1 |
| 20260503193018 | 82 | 316 | 5.2 | 7.8 | 0.00 | 0.00 | 0.00 | 44 | 1011.2 |
| 20260503191514 | 81 | 322 | 3.5 | 7.8 | 0.00 | 0.00 | 0.00 | 46 | 1011.3 |
| 20260503190019 | 80 | 351 | 1.7 | 5.2 | 0.00 | 0.00 | 0.00 | 49 | 1011.5 |
| 20260503184517 | 78 | 264 | 1.7 | 7.0 | 0.00 | 0.00 | 0.00 | 49 | 1011.6 |
| 20260503183026 | 77 | 333 | 1.7 | 6.1 | 0.00 | 0.00 | 0.00 | 47 | 1011.9 |
| 20260503181524 | 76 | 55 | 2.6 | 7.0 | 0.00 | 0.00 | 0.00 | 51 | 1012.0 |
| 20260503180020 | 75 | 306 | 0.9 | 5.2 | 0.00 | 0.00 | 0.00 | 51 | 1012.1 |
| 20260503174519 | 74 | 348 | 1.7 | 5.2 | 0.00 | 0.00 | 0.00 | 54 | 1012.2 |
| 20260503173015 | 73 | 264 | 2.6 | 5.2 | 0.00 | 0.00 | 0.00 | 56 | 1012.3 |
| 20260503171520 | 72 | 258 | 1.7 | 5.2 | 0.00 | 0.00 | 0.00 | 59 | 1012.4 |
| 20260503081516 | 55 | 158 | 0.0 | 0.0 | 0.00 | 0.01 | 0.00 | 88 | 1013.1 |
| 20260503071524 | 57 | 303 | 0.0 | 1.7 | 0.00 | 0.01 | 0.00 | 85 | 1013.1 |
| 20260503054521 | 61 | 9 | 1.7 | 3.5 | 0.00 | 0.01 | 0.01 | 79 | 1013.0 |
| 20260503053019 | 62 | 15 | 0.0 | 1.7 | 0.00 | 0.01 | 0.01 | 77 | 1013.2 |
| 20260503051521 | 62 | 15 | 1.7 | 1.7 | 0.00 | 0.01 | 0.01 | 76 | 1013.2 |
| 20260503050037 | 62 | 132 | 0.0 | 2.6 | 0.00 | 0.01 | 0.01 | 74 | 1013.3 |
| 20260503044525 | 62 | 59 | 0.9 | 1.7 | 0.00 | 0.01 | 0.01 | 74 | 1013.2 |
| 20260503043027 | 63 | 95 | 0.9 | 1.7 | 0.00 | 0.01 | 0.01 | 73 | 1013.3 |
| 20260503041535 | 64 | 130 | 0.9 | 3.5 | 0.00 | 0.01 | 0.01 | 71 | 1013.4 |
| 20260503040022 | 64 | 115 | 2.6 | 6.1 | 0.00 | 0.01 | 0.01 | 71 | 1013.4 |
| 20260503034520 | 65 | 146 | 2.6 | 6.1 | 0.00 | 0.01 | 0.01 | 70 | 1013.1 |
| 20260503033028 | 65 | 167 | 1.7 | 6.1 | 0.00 | 0.01 | 0.01 | 69 | 1013.0 |
| 20260503031531 | 67 | 157 | 4.3 | 8.7 | 0.00 | 0.01 | 0.01 | 67 | 1012.8 |
| 20260503030033 | 68 | 190 | 2.6 | 11.3 | 0.00 | 0.01 | 0.01 | 64 | 1012.5 |
| 20260503024526 | 70 | 177 | 6.1 | 10.4 | 0.00 | 0.01 | 0.01 | 61 | 1012.5 |
| 20260503023027 | 72 | 169 | 7.0 | 13.0 | 0.00 | 0.01 | 0.01 | 60 | 1012.3 |
| 20260503021525 | 73 | 261 | 0.9 | 1.7 | 0.00 | 0.01 | 0.01 | 57 | 1011.8 |
| 20260503020023 | 73 | 360 | 1.7 | 3.5 | 0.00 | 0.01 | 0.01 | 56 | 1011.7 |
| 20260503014520 | 74 | 338 | 0.9 | 3.5 | 0.00 | 0.01 | 0.01 | 56 | 1011.5 |
| 20260503013018 | 74 | 43 | 1.7 | 2.6 | 0.00 | 0.01 | 0.01 | 55 | 1011.5 |
| 20260503011515 | 74 | 284 | 0.9 | 3.5 | 0.00 | 0.01 | 0.01 | 58 | 1011.5 |
| 20260503010012 | 74 | 322 | 1.7 | 5.2 | 0.00 | 0.01 | 0.01 | 55 | 1011.5 |